Wind_Speed
31 31 30 29 28 27 27 26 23 21 20 20 20 20 19 20 20 19 19 19 20 21 21 22 23 24 25 26 27 28 27 26 25 25 24 24 24 25 25 25 25 26 27
32 32 32 31 31 32 31 27 25 24 23 22 22 22 21 20 20 20 20 21 22 23 25 25 25 26 27 27 26 26 26 26 25 25 25 24 25 25 25 25 26 28 28
31 32 32 31 32 33 31 30 27 25 24 25 24 22 21 20 21 21 22 23 24 25 25 26 27 28 29 27 27 27 27 26 27 28 26 26 26 26 26 26 27 28 30
30 31 32 32 31 31 31 30 29 28 27 26 25 25 24 24 24 24 25 25 26 26 27 28 29 29 28 27 27 28 28 27 26 27 27 26 26 27 27 28 30 31 32
28 30 31 32 32 33 34 32 30 29 27 26 27 27 27 26 25 26 27 26 26 26 27 28 29 29 27 26 25 26 26 26 26 26 27 27 28 28 30 31 32 34 36
29 30 32 33 33 33 31 30 29 28 27 27 28 28 28 27 27 27 27 26 27 28 28 29 28 28 27 26 25 25 26 27 28 28 29 29 31 31 32 33 34 36 38
29 30 31 32 32 32 29 27 28 28 27 27 28 28 29 29 28 28 28 27 28 29 30 30 29 30 29 28 27 27 27 28 29 29 30 32 33 34 35 36 37 39 41
28 28 29 30 29 29 29 28 27 27 28 29 29 29 30 31 30 29 28 29 29 30 31 30 30 30 30 30 31 31 32 33 33 34 35 36 37 38 38 39 41 43 45
26 27 28 28 28 28 28 28 29 29 30 31 31 30 31 31 32 31 31 31 32 32 32 31 32 33 33 34 35 35 36 37 38 39 40 41 41 42 43 44 45 47 48
25 25 26 27 27 27 28 28 29 30 30 30 30 31 31 31 32 32 32 33 34 34 34 35 35 37 37 38 38 39 40 41 42 43 44 44 45 46 47 48 49 49 51
25 25 25 25 26 27 28 29 30 31 31 32 32 33 33 33 33 33 34 35 36 37 38 38 39 39 40 41 42 42 43 44 45 46 46 46 47 48 49 50 51 52 53
25 26 27 27 27 28 29 29 30 31 32 32 33 33 33 34 34 35 36 37 38 39 40 41 41 42 43 44 44 44 45 46 47 47 47 48 48 50 51 52 53 54 55
22 25 26 27 28 29 29 30 31 31 32 33 34 34 35 35 36 37 38 39 40 41 42 43 44 44 45 45 45 46 46 47 47 48 49 50 51 51 52 52 53 54 54
22 23 24 26 28 28 29 30 31 32 33 33 34 35 36 37 37 38 39 40 41 42 43 44 44 44 45 45 45 46 47 47 48 49 50 51 51 51 52 52 52 52 52
22 22 23 25 27 28 30 31 31 32 33 33 34 35 35 36 37 38 39 41 41 42 43 43 43 44 44 44 46 47 47 48 48 48 49 49 50 50 50 50 50 50 50
21 22 23 25 27 28 28 29 30 31 31 32 32 33 34 35 36 37 38 39 40 40 41 41 41 42 43 44 45 45 45 45 45 45 46 46 45 45 44 44 44 43 42
21 22 23 25 26 27 28 28 29 29 29 30 31 32 33 34 35 35 36 36 37 37 37 38 38 40 40 41 41 41 41 41 42 42 41 39 38 37 36 36 36 35 35
20 21 22 23 24 26 26 27 27 27 28 28 29 29 30 30 31 32 33 33 33 34 34 35 36 37 37 37 37 36 36 36 35 33 32 31 30 29 28 27 27 27 26
17 18 20 21 22 23 24 24 24 25 25 25 26 26 27 28 29 29 29 29 30 31 32 33 33 32 32 31 30 30 29 29 28 27 25 24 23 21 21 20 19 19 18
15 16 17 19 20 21 22 22 22 23 23 24 24 24 24 24 24 25 25 26 27 28 29 28 28 27 26 26 26 25 24 24 23 21 19 18 17 15 15 14 13 12 12
14 14 15 16 16 17 18 19 20 20 21 21 21 21 21 21 22 22 23 23 24 25 24 24 22 22 21 20 20 20 19 19 18 17 15 13 12 12 12 11 11 10 10
13 13 13 14 14 15 16 17 17 18 18 18 19 19 19 20 20 21 21 20 20 20 19 18 17 17 16 17 17 16 15 15 14 13 12 11 11 11 11 11 11 11 10
10 11 12 12 13 14 15 15 15 16 16 17 17 17 18 18 17 17 17 16 15 15 14 13 13 13 13 13 13 12 12 12 11 11 11 10 10 11 11 11 11 11 11
8 9 10 11 12 13 14 14 15 15 15 15 15 15 15 14 13 13 13 12 12 11 11 11 10 11 11 11 11 10 10 10 10 10 10 10 10 10 11 12 12 12 12
7 8 9 10 11 11 12 12 13 14 14 14 14 13 12 11 11 11 11 10 10 9 9 9 9 9 9 10 10 10 9 9 9 10 10 10 11 11 11 12 12 12 12
8 8 8 9 10 10 11 11 11 12 12 11 11 10 10 10 9 9 9 8 8 8 8 7 7 8 9 9 9 10 9 9 9 10 11 11 11 11 12 12 12 13 13
Wind_Direction
240 243 244 241 240 237 233 228 225 225 226 227 228 230 231 234 237 243 248 254 256 258 263 265 269 270 274 275 276 281 283 285 289 289 285 285 288 285 278 277 278 278 276
238 240 240 243 244 239 231 226 227 228 226 228 231 232 234 238 243 247 252 257 260 263 265 267 272 273 275 277 277 282 282 284 287 287 285 282 284 284 282 279 275 274 273
238 240 242 245 243 237 229 228 228 230 233 232 233 236 240 245 248 251 255 258 262 266 268 269 273 276 277 282 279 284 288 284 285 287 286 284 279 278 279 278 275 274 273
237 239 244 248 246 243 237 233 230 234 234 235 238 240 243 246 248 252 256 259 263 268 269 269 271 279 283 286 286 286 288 287 285 283 285 286 283 278 277 277 275 273 275
237 240 244 250 254 252 249 245 235 233 235 238 241 242 243 246 250 255 257 261 266 271 273 273 277 281 286 290 291 292 292 292 291 286 287 288 286 283 280 276 276 276 277
240 243 246 250 253 256 256 248 240 242 244 245 247 250 250 251 255 260 264 268 271 272 277 282 287 287 290 292 294 296 295 292 291 289 288 288 288 285 282 280 277 278 277
240 245 249 252 255 260 260 258 253 251 250 251 254 256 258 261 265 269 271 272 276 277 280 286 289 290 290 291 292 294 296 293 292 291 289 288 287 286 284 282 281 279 278
244 248 250 252 257 260 262 262 265 260 256 258 260 261 265 267 270 274 277 278 282 284 288 289 291 291 291 290 291 292 293 291 290 290 289 287 285 285 283 282 282 280 280
244 247 248 252 255 257 258 261 263 264 264 264 264 268 271 273 276 279 282 286 289 289 290 290 291 293 293 292 292 291 291 290 289 289 288 287 285 283 282 281 281 281 279
242 246 248 249 253 257 260 262 262 264 267 269 269 271 276 278 279 282 285 287 289 288 287 289 290 291 291 291 291 290 290 290 289 289 288 286 284 283 282 282 281 280 280
242 245 248 251 255 258 260 262 263 265 267 269 271 274 277 278 279 280 282 284 285 286 288 288 289 290 291 291 290 289 289 289 289 288 287 286 284 283 282 282 281 279 279
245 247 250 253 257 259 261 262 263 265 267 270 272 274 276 277 277 278 280 282 284 285 288 289 289 290 290 290 290 290 289 289 289 288 287 287 286 284 283 281 281 280 279
251 249 252 255 258 260 261 263 264 266 268 270 271 273 274 275 277 278 280 282 283 285 287 288 289 290 290 291 291 290 290 290 289 289 288 287 286 285 283 282 282 281 280
253 252 253 257 259 261 263 264 266 267 268 270 271 272 274 275 277 278 281 282 284 285 287 288 289 290 291 291 292 292 291 290 290 290 289 287 286 285 284 283 281 280 280
256 255 257 260 262 264 265 266 266 268 269 270 271 273 274 276 278 279 281 283 284 286 288 289 289 290 291 292 293 293 293 293 292 292 290 289 287 286 284 283 281 280 280
267 266 264 263 264 266 266 267 269 270 272 273 274 275 276 277 279 280 282 284 286 287 289 289 291 292 293 293 294 295 295 296 295 294 293 291 290 289 287 284 283 282 282
269 266 265 265 265 267 268 270 271 272 273 274 275 276 277 278 279 281 284 286 288 289 291 292 293 294 294 295 295 297 297 297 297 297 296 295 295 293 292 290 288 286 285
270 266 265 266 267 268 270 271 272 273 273 275 276 277 278 279 281 283 285 287 289 290 291 292 294 295 296 298 298 299 300 301 302 302 302 302 301 301 300 298 296 294 292
272 269 267 269 269 268 268 269 270 272 273 275 277 278 280 282 284 286 287 289 290 292 293 295 297 298 299 300 302 305 307 309 310 312 312 311 310 310 310 309 306 303 301
274 272 270 270 271 271 271 272 273 274 275 277 279 281 283 285 286 287 288 290 292 295 297 298 299 300 302 306 309 313 315 318 321 322 321 321 321 323 326 326 326 324 322
275 274 272 272 272 273 273 273 274 275 276 277 279 281 283 284 286 288 291 293 295 297 299 301 302 305 309 315 319 323 326 329 332 334 336 339 345 349 352 352 351 349 345
277 275 274 273 273 274 273 273 274 275 276 277 279 281 284 285 286 289 292 295 298 301 304 306 309 314 318 321 325 330 335 339 343 349 353 356 359 360 360 1 1 359 355
284 279 277 276 277 278 277 275 275 276 276 277 279 282 284 284 286 289 293 297 303 308 313 317 323 327 329 330 335 340 345 348 352 356 357 359 1 2 2 2 1 1 359
292 285 283 283 283 282 281 279 278 277 276 277 278 280 282 284 286 289 294 301 308 314 320 326 333 338 339 341 344 346 348 351 354 357 359 359 359 359 358 356 355 355 355
305 298 295 293 292 290 287 284 281 279 279 278 277 280 282 283 285 290 297 306 310 315 320 326 336 342 346 349 351 353 353 355 356 356 355 355 354 354 354 352 350 351 351
320 313 308 305 303 299 294 289 285 283 281 279 279 281 283 282 285 290 298 305 309 315 321 328 336 342 346 350 354 355 353 353 354 354 353 352 351 351 348 347 349 349 347
Height
5832 5835 5837 5840 5843 5845 5846 5847 5850 5852 5855 5856 5858 5860 5861 5861 5862 5863 5862 5863 5863 5864 5864 5864 5864 5864 5863 5862 5861 5861 5859 5858 5857 5856 5854 5853 5851 5849 5848 5847 5846 5845 5843
5827 5829 5831 5835 5837 5839 5839 5840 5842 5845 5848 5850 5852 5854 5855 5856 5857 5858 5858 5858 5858 5858 5858 5858 5858 5858 5856 5855 5855 5854 5853 5852 5850 5849 5847 5846 5846 5843 5841 5840 5839 5838 5837
5821 5824 5827 5829 5829 5828 5830 5831 5835 5837 5840 5843 5845 5848 5850 5851 5851 5852 5852 5852 5851 5852 5852 5852 5852 5851 5850 5848 5848 5847 5846 5845 5843 5842 5841 5839 5839 5837 5835 5833 5832 5831 5829
5816 5819 5821 5822 5822 5824 5826 5825 5827 5831 5834 5836 5839 5841 5843 5844 5845 5845 5845 5846 5846 5846 5846 5845 5844 5844 5843 5842 5841 5840 5839 5837 5836 5835 5834 5832 5831 5830 5829 5827 5825 5823 5821
5811 5814 5816 5817 5818 5819 5820 5820 5822 5824 5828 5830 5832 5834 5835 5836 5837 5838 5838 5838 5838 5838 5838 5837 5837 5836 5835 5834 5833 5832 5831 5830 5829 5828 5826 5825 5823 5822 5821 5819 5817 5815 5813
5807 5809 5811 5812 5814 5814 5814 5815 5816 5818 5821 5823 5825 5827 5828 5829 5830 5830 5830 5830 5831 5831 5831 5830 5829 5828 5827 5826 5825 5824 5823 5822 5821 5820 5818 5816 5815 5813 5811 5809 5807 5805 5803
5802 5804 5806 5807 5808 5809 5809 5810 5810 5812 5815 5817 5818 5820 5821 5821 5822 5822 5822 5823 5823 5822 5822 5821 5821 5819 5818 5818 5817 5816 5815 5814 5813 5811 5809 5807 5805 5803 5801 5799 5796 5794 5792
5796 5798 5799 5802 5803 5804 5805 5805 5806 5807 5809 5811 5812 5813 5814 5814 5814 5814 5814 5815 5815 5814 5814 5813 5813 5812 5810 5810 5809 5808 5806 5805 5803 5802 5800 5797 5795 5793 5790 5788 5785 5782 5779
5790 5792 5794 5796 5797 5799 5800 5801 5801 5803 5804 5805 5807 5807 5807 5807 5807 5808 5808 5807 5807 5807 5806 5806 5804 5803 5802 5801 5800 5798 5797 5795 5793 5791 5788 5786 5783 5781 5778 5775 5772 5770 5766
5785 5787 5789 5790 5792 5793 5794 5795 5796 5797 5797 5798 5799 5800 5800 5800 5800 5800 5800 5800 5799 5799 5798 5797 5796 5794 5793 5791 5789 5788 5785 5783 5781 5778 5775 5773 5770 5767 5765 5762 5758 5755 5752
5779 5781 5783 5785 5786 5787 5788 5789 5790 5791 5791 5792 5792 5792 5793 5793 5793 5793 5793 5792 5791 5790 5789 5787 5786 5784 5782 5780 5778 5776 5773 5771 5768 5765 5762 5759 5756 5753 5750 5747 5744 5741 5738
5774 5776 5777 5778 5780 5781 5782 5783 5783 5784 5784 5784 5785 5785 5785 5785 5785 5785 5784 5784 5782 5781 5779 5777 5775 5773 5771 5768 5766 5763 5761 5758 5755 5752 5748 5745 5742 5739 5735 5732 5729 5725 5722
5768 5769 5771 5772 5773 5774 5775 5775 5776 5776 5776 5777 5777 5777 5777 5777 5777 5776 5775 5774 5772 5771 5769 5767 5765 5762 5759 5756 5754 5751 5748 5745 5741 5738 5734 5731 5727 5723 5720 5716 5713 5709 5706
5761 5763 5764 5765 5766 5767 5768 5768 5768 5769 5769 5769 5770 5769 5769 5769 5768 5767 5766 5764 5762 5761 5758 5756 5753 5751 5748 5744 5741 5738 5735 5731 5728 5724 5720 5715 5711 5707 5704 5700 5696 5693 5689
5755 5756 5757 5758 5759 5759 5760 5760 5760 5760 5761 5761 5761 5760 5760 5759 5758 5757 5756 5754 5752 5750 5748 5745 5742 5739 5736 5733 5729 5726 5722 5717 5713 5709 5704 5700 5695 5691 5687 5683 5679 5676 5673
5749 5750 5750 5751 5751 5752 5752 5752 5752 5752 5752 5752 5751 5751 5751 5750 5749 5748 5746 5744 5742 5739 5737 5734 5731 5728 5725 5721 5717 5713 5709 5704 5699 5694 5689 5684 5679 5675 5671 5667 5664 5661 5658
5743 5743 5743 5743 5743 5743 5744 5744 5744 5744 5743 5743 5743 5742 5741 5741 5740 5738 5736 5734 5732 5729 5727 5724 5721 5717 5714 5710 5706 5701 5697 5692 5686 5681 5676 5671 5666 5662 5658 5654 5651 5648 5646
5735 5736 5736 5736 5737 5736 5736 5736 5736 5736 5735 5735 5735 5734 5733 5732 5731 5729 5727 5725 5723 5720 5717 5714 5711 5708 5704 5700 5695 5691 5686 5681 5675 5670 5665 5661 5656 5652 5648 5645 5642 5639 5637
5729 5729 5729 5729 5729 5729 5729 5729 5729 5729 5728 5728 5727 5726 5725 5724 5723 5721 5719 5717 5714 5712 5709 5705 5702 5698 5695 5690 5686 5682 5677 5672 5667 5662 5657 5653 5650 5646 5642 5639 5636 5633 5632
5724 5724 5724 5723 5723 5723 5723 5723 5722 5722 5722 5721 5720 5719 5718 5717 5715 5714 5712 5709 5707 5704 5700 5697 5693 5690 5686 5683 5678 5674 5670 5665 5661 5657 5653 5649 5646 5642 5639 5636 5633 5631 5629
5719 5719 5719 5718 5718 5717 5717 5716 5716 5716 5715 5714 5714 5712 5711 5710 5709 5707 5705 5703 5700 5697 5694 5690 5686 5683 5680 5676 5673 5669 5665 5661 5658 5654 5650 5647 5644 5641 5638 5636 5633 5631 5628
5715 5714 5714 5713 5713 5713 5712 5711 5711 5710 5709 5708 5708 5707 5706 5704 5703 5701 5699 5697 5694 5691 5688 5685 5681 5678 5675 5672 5669 5665 5662 5659 5656 5653 5650 5647 5644 5642 5639 5636 5634 5631 5629
5711 5710 5710 5709 5709 5708 5707 5706 5706 5705 5704 5703 5702 5701 5700 5699 5697 5696 5694 5692 5690 5687 5684 5681 5678 5675 5672 5669 5667 5664 5661 5658 5656 5653 5651 5648 5645 5643 5640 5638 5635 5632 5630
5707 5707 5706 5705 5704 5703 5702 5701 5701 5700 5699 5698 5697 5696 5695 5694 5693 5691 5690 5688 5686 5684 5681 5679 5676 5673 5671 5668 5666 5663 5661 5658 5656 5653 5651 5649 5646 5644 5641 5638 5635 5633 5630
5704 5703 5702 5701 5700 5699 5698 5697 5696 5695 5694 5693 5692 5692 5691 5690 5689 5688 5686 5685 5683 5681 5679 5677 5675 5672 5670 5668 5665 5663 5661 5658 5656 5654 5652 5649 5646 5644 5641 5638 5636 5633 5630
5702 5700 5699 5698 5696 5695 5694 5692 5691 5690 5689 5689 5688 5688 5687 5686 5686 5685 5683 5682 5681 5679 5677 5676 5674 5672 5670 5667 5665 5663 5661 5659 5656 5654 5652 5649 5647 5644 5641 5638 5635 5632 5629